This is the latest recevied weather packets stored in our database for station/object K3PPP. If no packets are shown the sender has not sent any weather packets the latest 10 day(s).
| Time | Temp. | Humidity | Pressure | Rain* | Wind** | Luminosity | Snow |
|---|---|---|---|---|---|---|---|
| 1777491127 | 15° C | 97% | 1007 hPa | 4.83 mm | - | 148 W/m² | - |
| 1777490823 | 15° C | 96% | 1007.1 hPa | 0 mm | - | 92 W/m² | - |
| 1777490520 | 15° C | 95% | 1007.3 hPa | 0 mm | - | 78 W/m² | - |
| 1777490215 | 15° C | 94% | 1007.6 hPa | 0 mm | - | 93 W/m² | - |
| 1777489913 | 15° C | 94% | 1007.1 hPa | 0 mm | - | 141 W/m² | - |
| 1777489611 | 15° C | 93% | 1007.2 hPa | 0 mm | - | 72 W/m² | - |
| 1777489307 | 15° C | 93% | 1007.4 hPa | 0 mm | - | 64 W/m² | - |
| 1777489004 | 15.56° C | 93% | 1007.6 hPa | 0 mm | - | 115 W/m² | - |
| 1777488701 | 15° C | 94% | 1007.4 hPa | 0 mm | - | 163 W/m² | - |
| 1777488399 | 15.56° C | 95% | 1007.8 hPa | 0 mm | - | 218 W/m² | - |
| 1777488097 | 15.56° C | 96% | 1007.5 hPa | 0 mm | - | 312 W/m² | - |
| 1777487795 | 15.56° C | 96% | 1007.5 hPa | 1.27 mm | - | 494 W/m² | - |
| 1777487492 | 15° C | 97% | 1007.6 hPa | 1.27 mm | - | 1018 W/m² | - |
| 1777487189 | 14.44° C | 96% | 1008 hPa | 0 mm | - | 266 W/m² | - |
| 1777486885 | 14.44° C | 96% | 1008.4 hPa | 1.78 mm | - | 99 W/m² | - |
| 1777486582 | 14.44° C | 95% | 1008.6 hPa | 1.78 mm | - | 45 W/m² | - |
| 1777486280 | 15° C | 95% | 1008.4 hPa | 0 mm | - | 66 W/m² | - |
| 1777485978 | 15° C | 95% | 1008.7 hPa | 0 mm | - | 69 W/m² | - |
| 1777485674 | 15° C | 95% | 1008.7 hPa | 0 mm | - | 158 W/m² | - |
| 1777485369 | 15° C | 97% | 1008.8 hPa | 0 mm | - | 226 W/m² | - |
| 1777485065 | 15° C | 97% | 1008.5 hPa | 0 mm | - | 248 W/m² | - |
| 1777484763 | 14.44° C | 98% | 1008.8 hPa | 0 mm | - | 219 W/m² | - |
| 1777484458 | 15° C | 98% | 1008.8 hPa | 0 mm | - | 172 W/m² | - |
| 1777484156 | 14.44° C | 99% | 1008.8 hPa | 0 mm | - | 131 W/m² | - |
| 1777483851 | 14.44° C | 99% | 1009.2 hPa | 0 mm | - | 132 W/m² | - |
* Rain latest hour (hover to see other rain measurements)
** Current wind speed in m/s (hover to see current wind gust speed)